Prescott, AZ

3:37 AM MST on February 23, 2017 (GMT -0700)
Love

Weather History for KPRC - March, 2014

Change the Weather History Date:

Saturday, March 1, 2014

  Actual Average Record
Temperature  
Mean Temperature 44 °F 44 °F  
Max Temperature 50 °F 57 °F 74 °F (1967)
Min Temperature 38 °F 31 °F 13 °F (1987)
Degree Days  
Heating Degree Days 21    
Month to date heating degree days 21  
Since 1 July heating degree days 2935  
Cooling Degree Days 0    
Month to date cooling degree days 0  
Year to date cooling degree days 0  
Moisture  
Dew Point 39 °F    
Average Humidity 81    
Maximum Humidity 89    
Minimum Humidity 71    
Precipitation  
Precipitation 0.51 in 0.04 in 1.61 in (1970)
Month to date precipitation 0.51 0.04  
Year to date precipitation 0.68 2.55  
Sea Level Pressure  
Sea Level Pressure 29.79 in    
Wind  
Wind Speed 11 mph (SW)    
Max Wind Speed 28 mph    
Max Gust Speed 38 mph    
Visibility 8 miles    
Events Rain    
T = Trace of Precipitation, MM = Missing Value Source: NWS Daily Summary

Daily Weather History Graph

Daily Weather History Graph

Search for Another Location

Airport or City:

Trip Planner

Search our weather history database for the weather conditions in past years. The results will help you decide how hot, cold, wet, or windy it might be!

Date:

Astronomy

Mar. 01, 2014 Rise Set
Actual Time 6:58 AM MST 6:25 PM MST
Civil Twilight 6:33 AM MST 6:51 PM MST
Nautical Twilight 6:04 AM MST 7:20 PM MST
Astronomical Twilight 5:35 AM MST 7:49 PM MST
Moon 6:57 AM MST (3/1) 7:13 PM MST (3/1)
Length of Visible Light 12h 17m
Length of Day
11h 26m
New Moon, 0% of the Moon is Illuminated
Mar 1
New Moon
Mar 8
First Quarter
Mar 16
Full
Mar 23
Last Quarter
Mar 30
New

Hourly Weather History & Observations

Time (MST) Temp. Windchill Dew Point Humidity Pressure Visibility Wind Dir Wind Speed Gust Speed Precip Events Conditions
12:40 AM 50.0 °F - 45.0 °F 83% 29.80 in 2.5 mi SSW 11.5 mph 20.7 mph 0.05 in Rain Heavy Rain
12:51 AM 50.0 °F - 44.6 °F 82% 29.80 in 5.0 mi SSW 12.7 mph 19.6 mph 0.07 in Rain Light Rain
12:53 AM 50.0 °F - 45.0 °F 83% 29.64 in 6.0 mi SSW 11.5 mph 19.6 mph 0.07 in Rain Light Rain
1:27 AM 48.9 °F - 44.1 °F 83% 29.81 in 4.0 mi SW 11.5 mph 23.0 mph 0.02 in Rain Rain
1:53 AM 48.0 °F - 43.0 °F 83% 29.65 in 4.0 mi SW 21.9 mph 35.7 mph 0.05 in Rain Light Rain
2:41 AM 46.0 °F 39.0 °F 41.0 °F 83% 29.82 in 6.0 mi WSW 17.3 mph 23.0 mph 0.02 in Rain Light Rain
2:53 AM 46.0 °F 40.6 °F 41.0 °F 83% 29.66 in 7.0 mi WSW 11.5 mph - 0.02 in Rain Light Rain
3:08 AM 45.0 °F 39.3 °F 41.0 °F 86% 29.82 in 5.0 mi WSW 11.5 mph - 0.01 in Rain Light Rain
3:53 AM 45.0 °F 37.9 °F 41.0 °F 86% 29.69 in 8.0 mi WSW 16.1 mph 21.9 mph 0.04 in Rain Light Rain
4:38 AM 45.0 °F 37.4 °F 39.9 °F 82% 29.82 in 10.0 mi WSW 18.4 mph - 0.04 in   Mostly Cloudy
4:53 AM 44.1 °F 37.1 °F 39.9 °F 85% 29.70 in 10.0 mi WSW 15.0 mph - 0.04 in   Mostly Cloudy
5:02 AM 45.0 °F 37.6 °F 39.9 °F 82% 29.82 in 10.0 mi WSW 17.3 mph 24.2 mph N/A   Scattered Clouds
5:53 AM 45.0 °F 37.4 °F 37.9 °F 76% 29.69 in 10.0 mi SW 18.4 mph - 0.00 in Rain Light Rain
6:53 AM 45.0 °F 37.9 °F 37.9 °F 76% 29.74 in 10.0 mi SW 16.1 mph 25.3 mph 0.00 in   Mostly Cloudy
7:53 AM 45.0 °F 39.7 °F 37.0 °F 74% 29.77 in 10.0 mi SW 10.4 mph - N/A   Overcast
8:53 AM 46.0 °F 40.6 °F 37.0 °F 71% 29.80 in 10.0 mi SW 11.5 mph - N/A   Mostly Cloudy
9:53 AM 46.0 °F 39.6 °F 37.0 °F 71% 29.79 in 10.0 mi SSW 15.0 mph - 0.01 in   Mostly Cloudy
10:53 AM 45.0 °F 39.3 °F 39.0 °F 80% 29.81 in 5.0 mi SSW 11.5 mph 19.6 mph 0.02 in Rain Light Rain
11:53 AM 45.0 °F 38.9 °F 39.9 °F 82% 29.80 in 4.0 mi SSW 12.7 mph - 0.01 in Rain Light Rain
12:53 PM 48.9 °F - 41.0 °F 74% 29.77 in 10.0 mi SSW 13.8 mph - 0.00 in   Mostly Cloudy
1:32 PM 48.0 °F - 41.0 °F 77% 29.88 in 10.0 mi SSW 11.5 mph - 0.00 in Rain Light Rain
1:53 PM 46.9 °F - 41.0 °F 80% 29.77 in 8.0 mi West 13.8 mph - 0.00 in Rain Light Rain
2:13 PM 45.0 °F 37.6 °F 39.9 °F 82% 29.88 in 3.0 mi West 17.3 mph - 0.02 in Rain Rain
2:53 PM 48.0 °F - 41.0 °F 77% 29.76 in 10.0 mi SSW 15.0 mph - 0.03 in   Mostly Cloudy
3:53 PM 46.9 °F - 41.0 °F 80% 29.75 in 10.0 mi SW 9.2 mph - 0.01 in   Mostly Cloudy
4:53 PM 46.0 °F 41.0 °F 37.9 °F 73% 29.76 in 9.0 mi WSW 10.4 mph - 0.00 in Rain Light Rain
5:53 PM 45.0 °F 42.6 °F 39.9 °F 82% 29.77 in 10.0 mi South 4.6 mph - 0.02 in Rain Light Rain
6:53 PM 45.0 °F - 39.0 °F 80% 29.75 in 10.0 mi Calm Calm - 0.00 in   Overcast
7:53 PM 45.0 °F 43.5 °F 39.0 °F 80% 29.76 in 10.0 mi West 3.5 mph - N/A   Overcast
8:23 PM 44.1 °F 39.0 °F 39.0 °F 82% 29.88 in 5.0 mi WNW 9.2 mph - 0.02 in Rain Rain
8:53 PM 39.0 °F 31.0 °F 34.0 °F 82% 29.83 in 4.0 mi SW 13.8 mph - 0.09 in Rain Light Rain
9:03 PM 37.9 °F 31.5 °F 35.1 °F 89% 29.91 in 6.0 mi SW 9.2 mph - 0.00 in Rain Light Rain
9:25 PM 39.0 °F 31.0 °F 35.1 °F 86% 29.92 in 5.0 mi SW 13.8 mph - 0.04 in Rain Rain
9:53 PM 39.0 °F 34.8 °F 35.1 °F 86% 29.86 in 6.0 mi SW 5.8 mph - 0.08 in Rain Light Rain
10:16 PM 37.9 °F 32.1 °F 35.1 °F 89% 29.93 in 9.0 mi South 8.1 mph - 0.01 in Rain Light Rain
10:53 PM 39.0 °F 35.7 °F 35.1 °F 86% 29.84 in 10.0 mi SE 4.6 mph - 0.02 in   Overcast
11:53 PM 37.9 °F 32.7 °F 34.0 °F 86% 29.86 in 10.0 mi SW 6.9 mph - N/A   Clear